TimeEST,TemperatureF,Dew PointF,Humidity,Sea Level PressureIn,VisibilityMPH,Wind Direction,Wind SpeedMPH,Gust SpeedMPH,PrecipitationIn,Events,Conditions,WindDirDegrees,DateUTC
12:53 AM,68.0,63.0,84,30.08,10.0,ESE,5.8,-,N/A,,Clear,120,2013-02-07 05:53:00
1:53 AM,66.9,62.1,84,30.07,10.0,ESE,5.8,-,N/A,,Clear,110,2013-02-07 06:53:00
2:53 AM,64.9,62.1,90,30.06,10.0,Calm,Calm,-,N/A,,Clear,0,2013-02-07 07:53:00
3:53 AM,64.9,63.0,93,30.04,10.0,East,3.5,-,N/A,,Clear,100,2013-02-07 08:53:00
4:53 AM,63.0,61.0,93,30.04,10.0,Calm,Calm,-,N/A,,Clear,0,2013-02-07 09:53:00
5:53 AM,64.0,62.1,93,30.04,10.0,East,3.5,-,N/A,,Clear,100,2013-02-07 10:53:00
6:53 AM,64.0,62.1,93,30.05,10.0,Calm,Calm,-,N/A,,Clear,0,2013-02-07 11:53:00
7:53 AM,64.9,63.0,93,30.06,10.0,East,3.5,-,N/A,,Clear,100,2013-02-07 12:53:00
8:53 AM,73.9,64.9,73,30.08,10.0,ESE,5.8,-,N/A,,Clear,110,2013-02-07 13:53:00
9:53 AM,77.0,63.0,62,30.08,10.0,ESE,6.9,-,N/A,,Partly Cloudy,110,2013-02-07 14:53:00
10:53 AM,79.0,63.0,58,30.08,10.0,East,5.8,-,N/A,,Partly Cloudy,100,2013-02-07 15:53:00
11:53 AM,79.0,63.0,58,30.06,10.0,ESE,11.5,17.3,N/A,,Partly Cloudy,120,2013-02-07 16:53:00
12:53 PM,80.1,63.0,56,30.01,10.0,South,9.2,-,N/A,,Scattered Clouds,180,2013-02-07 17:53:00
1:53 PM,81.0,64.0,56,29.98,10.0,SE,12.7,-,N/A,,Partly Cloudy,130,2013-02-07 18:53:00
2:53 PM,80.1,64.0,58,29.97,10.0,SSE,8.1,-,N/A,,Partly Cloudy,160,2013-02-07 19:53:00
3:53 PM,80.1,63.0,56,29.96,10.0,SSE,9.2,-,N/A,,Partly Cloudy,150,2013-02-07 20:53:00
4:53 PM,79.0,62.1,56,29.97,10.0,SSE,5.8,-,N/A,,Partly Cloudy,150,2013-02-07 21:53:00
5:53 PM,75.9,64.0,67,29.97,10.0,SSE,6.9,-,N/A,,Clear,150,2013-02-07 22:53:00
6:53 PM,73.0,64.0,73,29.99,10.0,SSE,4.6,-,N/A,,Clear,160,2013-02-07 23:53:00
7:53 PM,72.0,64.9,78,30.01,10.0,Calm,Calm,-,N/A,,Clear,0,2013-02-08 00:53:00
8:53 PM,66.9,63.0,87,30.02,10.0,Calm,Calm,-,N/A,,Clear,0,2013-02-08 01:53:00
9:53 PM,64.9,63.0,93,30.03,10.0,Calm,Calm,-,N/A,,Clear,0,2013-02-08 02:53:00
10:53 PM,68.0,64.0,87,30.02,10.0,South,4.6,-,N/A,,Clear,180,2013-02-08 03:53:00
11:53 PM,66.9,63.0,87,30.00,10.0,South,5.8,-,N/A,,Clear,190,2013-02-08 04:53:00